Agia Marina, Greece

1:55 PM EET on November 18, 2017 (GMT +0200)
Odysseas Elytis | | Change Station

Elev 16 ft 39.07 °N, 26.60 °E | Updated 35 minutes ago

Partly Cloudy
Partly Cloudy
64 °F
Feels Like 64 °F
N
0
Wind Variable Wind from North

Today
High -- | Low -- °F
--% Chance of Precip.
Yesterday
High -- | Low -- °F
Precip. -- in
Pressure 29.92 in
Visibility 6.2 miles
Clouds Scattered Clouds 2500 ft
Dew Point 52 °F
Humidity 64%
Rainfall 0.00 in
Snow Depth Not available.
6:59 AM 4:57 PM
New Moon, 0% visible
METAR LGMT 181120Z 00000KT 9999 SCT025 18/11 Q1013
Pressure 29.92 in
Visibility 6.2 miles
Clouds Scattered Clouds 2500 ft
Dew Point 52 °F
Humidity 64%
Rainfall 0.00 in
Snow Depth Not available.
6:59 AM 4:57 PM
New Moon, 0% visible
METAR LGMT 181120Z 00000KT 9999 SCT025 18/11 Q1013

Get Severe Weather Alerts

Thanks for signing up!

Be on the lookout for a verification email in your inbox.

You'll start receiving the daily forecast at 6 AM.

×

10-Day Weather Forecast

×

Almanac

Astronomy

Nov. 18, 2017 Rise Set
Actual Time
Civil Twilight
Nautical Twilight
Astronomical Twilight
Moon
Length of Visible Light
Length of Day
Tomorrow will be .
, % of the Moon is Illuminated

Today's Extremes

Country Highs Country Lows

Community

WunderPhotos

Category 6

Welcome to Category 6. This is the collective home for Weather Underground's featured writeups by Dr. Jeff Masters (right), Bob Henson (left), Chris Burt, and other regular contributors.

Nearby

Air Quality

  Air Quality AQ Index Pollutant
Not available.

Snow Depth

Station Depth Elevation

Earthquake Activity

City Distance Mag. Time & Date
Minimum magnitude displayed is 2.5.

Coastal Water Temperatures

Place Temperature

Stations

Nearby Weather Stations

Station Location Temp. Windchill Dew Point Humidity Wind Precip. Elev Updated Type